Weather History for Mesquite, TX

Change the Weather History Date:

Monday, March 4, 2013

  Actual Average (KDFW) Record (KDFW)
Temperature  
Mean Temperature 68 °F 54 °F  
Max Temperature 82 °F 65 °F 88 °F (1955)
Min Temperature 53 °F 44 °F 20 °F (2002)
Degree Days  
Heating Degree Days 0 11  
Month to date heating degree days 47  
Since 1 July heating degree days 1979  
Cooling Degree Days 2 1  
Month to date cooling degree days 2  
Year to date cooling degree days 9  
Growing Degree Days 18 (Base 50)    
Moisture  
Dew Point 44 °F    
Average Humidity 48    
Maximum Humidity 72    
Minimum Humidity 21    
Precipitation  
Precipitation 0.00 in 0.11 in 1.27 in (1937)
Month to date precipitation 0.43  
Year to date precipitation 5.22  
Snow  
Snow 0.00 in 0.00 in 0.30 in (1989)
Month to date snowfall 0.0  
Since 1 July snowfall 1.0  
Snow Depth -    
Sea Level Pressure  
Sea Level Pressure 29.71 in    
Wind  
Wind Speed 19 mph (South)    
Max Wind Speed 25 mph    
Max Gust Speed 32 mph    
Visibility 10 miles    
Events      
T = Trace of Precipitation, MM = Missing Value Source: NWS Daily Summary

Daily Weather History Graph

Daily Weather History Graph

Search for Another Location

Airport:

Trip Planner

Search our weather history database for the weather conditions in past years. The results will help you decide how hot, cold, wet, or windy it might be!

Date:

Astronomy

Mar. 04, 2013 Rise Set
Actual Time 6:49 AM CST 6:25 PM CST
Civil Twilight 6:25 AM CST 6:50 PM CST
Nautical Twilight 5:56 AM CST 7:19 PM CST
Astronomical Twilight 5:28 AM CST 7:47 PM CST
Moon 12:47 AM CST (3/4) 11:22 AM CST (3/4)
Length of Visible Light 12h 25m
Length of Day
11h 36m
Waning Gibbous, 52% of the Moon is Illuminated
Mar 4
Waning Gibbous
Mar 4
Last Quarter
Mar 11
New
Mar 19
First Quarter
Mar 27
Full

Hourly Weather History & Observations

Time (CST) Temp. Dew Point Humidity Pressure Visibility Wind Dir Wind Speed Gust Speed Precip Events Conditions
12:15 AM 59.0 °F 41.0 °F 51% 29.83 in 10.0 mi South 21.9 mph 28.8 mph N/A   Clear
12:35 AM 57.2 °F 41.0 °F 55% 29.83 in 10.0 mi South 25.3 mph 29.9 mph N/A   Clear
12:55 AM 57.2 °F 39.2 °F 51% 29.82 in 10.0 mi South 19.6 mph 25.3 mph N/A   Clear
1:15 AM 57.2 °F 39.2 °F 51% 29.82 in 10.0 mi South 20.7 mph 27.6 mph N/A   Clear
1:35 AM 55.4 °F 41.0 °F 58% 29.81 in 10.0 mi SSE 21.9 mph 26.5 mph N/A   Clear
1:55 AM 55.4 °F 41.0 °F 58% 29.81 in 10.0 mi South 20.7 mph 29.9 mph N/A   Clear
2:15 AM 55.4 °F 41.0 °F 58% 29.80 in 10.0 mi South 19.6 mph 32.2 mph N/A   Clear
2:35 AM 55.4 °F 41.0 °F 58% 29.79 in 10.0 mi South 19.6 mph 32.2 mph N/A   Clear
2:55 AM 55.4 °F 41.0 °F 58% 29.78 in 10.0 mi South 19.6 mph 28.8 mph N/A   Clear
3:15 AM 53.6 °F 41.0 °F 62% 29.78 in 10.0 mi South 18.4 mph 26.5 mph N/A   Clear
3:35 AM 53.6 °F 41.0 °F 62% 29.77 in 10.0 mi South 17.3 mph 25.3 mph N/A   Clear
3:55 AM 53.6 °F 42.8 °F 67% 29.77 in 10.0 mi South 18.4 mph 24.2 mph N/A   Clear
4:35 AM 53.6 °F 42.8 °F 67% 29.76 in 10.0 mi South 16.1 mph 23.0 mph N/A   Clear
4:55 AM 53.6 °F 42.8 °F 67% 29.76 in 10.0 mi South 17.3 mph 21.9 mph N/A   Clear
5:15 AM 53.6 °F 42.8 °F 67% 29.77 in 10.0 mi South 13.8 mph 20.7 mph N/A   Clear
5:35 AM 53.6 °F 42.8 °F 67% 29.76 in 10.0 mi South 19.6 mph 24.2 mph N/A   Clear
5:55 AM 55.4 °F 42.8 °F 63% 29.76 in 10.0 mi South 17.3 mph 26.5 mph N/A   Clear
6:15 AM 55.4 °F 44.6 °F 67% 29.76 in 10.0 mi South 17.3 mph 25.3 mph N/A   Clear
6:35 AM 55.4 °F 44.6 °F 67% 29.76 in 10.0 mi South 23.0 mph 28.8 mph N/A   Clear
6:55 AM 55.4 °F 44.6 °F 67% 29.74 in 10.0 mi South 21.9 mph 29.9 mph N/A   Clear
7:15 AM 55.4 °F 44.6 °F 67% 29.74 in 10.0 mi South 24.2 mph 31.1 mph N/A   Clear
7:35 AM 55.4 °F 44.6 °F 67% 29.75 in 10.0 mi South 23.0 mph 31.1 mph N/A   Clear
7:55 AM 55.4 °F 46.4 °F 72% 29.74 in 10.0 mi South 23.0 mph 28.8 mph N/A   Clear
8:15 AM 55.4 °F 46.4 °F 72% 29.74 in 10.0 mi South 24.2 mph 32.2 mph N/A   Clear
8:55 AM 59.0 °F 46.4 °F 63% 29.74 in 10.0 mi South 20.7 mph 26.5 mph N/A   Clear
9:15 AM 59.0 °F 46.4 °F 63% 29.73 in 10.0 mi South 19.6 mph 28.8 mph N/A   Clear
9:35 AM 60.8 °F 46.4 °F 59% 29.73 in 10.0 mi SSW 21.9 mph 26.5 mph N/A   Clear
9:55 AM 60.8 °F 46.4 °F 59% 29.73 in 10.0 mi South 19.6 mph 26.5 mph N/A   Clear
10:15 AM 62.6 °F 46.4 °F 55% 29.73 in 10.0 mi SSW 17.3 mph 25.3 mph N/A   Clear
10:35 AM 64.4 °F 44.6 °F 49% 29.73 in 10.0 mi South 21.9 mph 27.6 mph N/A   Clear
10:55 AM 64.4 °F 44.6 °F 49% 29.72 in 10.0 mi SSW 19.6 mph 26.5 mph N/A   Clear
11:15 AM 64.4 °F 44.6 °F 49% 29.72 in 10.0 mi SSW 17.3 mph 20.7 mph N/A   Clear
11:35 AM 68.0 °F 44.6 °F 43% 29.71 in 10.0 mi SSW 16.1 mph 23.0 mph N/A   Clear
12:15 PM 73.4 °F 42.8 °F 33% 29.70 in 10.0 mi South 16.1 mph 23.0 mph N/A   Clear
12:35 PM 75.2 °F 42.8 °F 31% 29.69 in 10.0 mi SSW 17.3 mph 25.3 mph N/A   Clear
12:55 PM 75.2 °F 41.0 °F 29% 29.68 in 10.0 mi SSW 18.4 mph 25.3 mph N/A   Clear
1:15 PM 77.0 °F 42.8 °F 29% 29.66 in 10.0 mi SSW 17.3 mph 23.0 mph N/A   Clear
1:35 PM 78.8 °F 39.2 °F 24% 29.66 in 10.0 mi SSW 17.3 mph 23.0 mph N/A   Clear
1:55 PM 80.6 °F 37.4 °F 21% 29.64 in 10.0 mi SW 13.8 mph 24.2 mph N/A   Clear
2:15 PM 80.6 °F 37.4 °F 21% 29.64 in 10.0 mi SSW 18.4 mph 24.2 mph N/A   Clear
2:35 PM 80.6 °F 37.4 °F 21% 29.63 in 10.0 mi SSW 17.3 mph 23.0 mph N/A   Clear
2:55 PM 82.4 °F 41.0 °F 23% 29.63 in 10.0 mi SSW 20.7 mph 25.3 mph N/A   Clear
3:15 PM 80.6 °F 42.8 °F 26% 29.63 in 10.0 mi South 18.4 mph - N/A   Clear
3:35 PM 80.6 °F 42.8 °F 26% 29.63 in 10.0 mi South 20.7 mph 28.8 mph N/A   Clear
3:55 PM 78.8 °F 44.6 °F 30% 29.63 in 10.0 mi South 20.7 mph 28.8 mph N/A   Clear
4:15 PM 78.8 °F 42.8 °F 28% 29.62 in 10.0 mi South 21.9 mph 32.2 mph N/A   Clear
4:35 PM 77.0 °F 44.6 °F 32% 29.62 in 10.0 mi South 18.4 mph 24.2 mph N/A   Clear
4:55 PM 78.8 °F 44.6 °F 30% 29.62 in 10.0 mi South 18.4 mph 24.2 mph N/A   Clear
5:15 PM 77.0 °F 44.6 °F 32% 29.63 in 10.0 mi South 16.1 mph 20.7 mph N/A   Clear
5:35 PM 77.0 °F 42.8 °F 29% 29.63 in 10.0 mi South 20.7 mph 26.5 mph N/A   Clear
5:55 PM 75.2 °F 42.8 °F 31% 29.63 in 10.0 mi South 16.1 mph 23.0 mph N/A   Clear
6:15 PM 73.4 °F 42.8 °F 33% 29.63 in 10.0 mi South 12.7 mph - N/A   Clear
6:35 PM 71.6 °F 42.8 °F 35% 29.64 in 10.0 mi South 9.2 mph - N/A   Clear
6:55 PM 69.8 °F 44.6 °F 40% 29.64 in 10.0 mi SSE 8.1 mph - N/A   Clear
7:15 PM 69.8 °F 44.6 °F 40% 29.64 in 10.0 mi SSE 10.4 mph - N/A   Clear
7:35 PM 68.0 °F 44.6 °F 43% 29.64 in 10.0 mi SSE 9.2 mph - N/A   Clear
7:55 PM 64.4 °F 46.4 °F 52% 29.65 in 10.0 mi SSE 8.1 mph - N/A   Clear
8:15 PM 64.4 °F 46.4 °F 52% 29.64 in 10.0 mi SSE 9.2 mph - N/A   Clear
8:35 PM 69.8 °F 44.6 °F 40% 29.65 in 10.0 mi South 13.8 mph - N/A   Clear
8:55 PM 69.8 °F 44.6 °F 40% 29.65 in 10.0 mi South 13.8 mph - N/A   Clear
9:15 PM 69.8 °F 44.6 °F 40% 29.66 in 10.0 mi South 13.8 mph 20.7 mph N/A   Clear
9:35 PM 68.0 °F 44.6 °F 43% 29.67 in 10.0 mi SSE 10.4 mph - N/A   Clear
9:55 PM 66.2 °F 46.4 °F 49% 29.67 in 10.0 mi SSE 11.5 mph - N/A   Clear
10:15 PM 64.4 °F 46.4 °F 52% 29.68 in 10.0 mi SSE 11.5 mph - N/A   Clear
10:35 PM 64.4 °F 46.4 °F 52% 29.68 in 10.0 mi SSE 12.7 mph - N/A   Clear
10:55 PM 62.6 °F 48.2 °F 59% 29.69 in 10.0 mi SSE 9.2 mph - N/A   Clear
11:15 PM 62.6 °F 50.0 °F 63% 29.69 in 10.0 mi South 9.2 mph - N/A   Clear
11:35 PM 60.8 °F 50.0 °F 68% 29.71 in 10.0 mi SSW 6.9 mph - N/A   Clear
11:55 PM 62.6 °F 46.4 °F 55% 29.76 in 10.0 mi WNW 8.1 mph - N/A   Clear